[Date Prev][Date Next][Thread Prev][Thread Next] - [Date Index][Thread Index][Author Index]

2 Line ISS Keps 7-8



ISS
1 25544U 98067A   03189.11658925  .00014132  00000-0  17554-3 0  2009
2 25544  51.6329 274.9674 0008267 346.7073  88.6465 15.60252541264279


----
Via the sarex mailing list at AMSAT.ORG courtesy of AMSAT-NA.
To unsubscribe, send "unsubscribe sarex" to Majordomo@amsat.org



AMSAT Top AMSAT Home